Home > Weather > Gmünd > Past weeks

Flag for Austria Past Weather in Gmünd, Lower Austria, Austria — Yesterday and Last 2 Weeks

Now
61 °F

Cool.


Feels Like: 61 °F
Forecast: 47 / 56 °F
Wind: 7 mph from West

Location: Retz

Current Time: May 24, 2016 at 3:57:01 PM

Latest Report: May 24, 2016 at 3:00 PM


Visibility: N/A

Pressure: 29.75 "Hg

Humidity: 78%

Dew Point: 54 °F

Location of GmündLocation

Past Weather in Gmünd — Graph

°F

Gmünd Temperature Yesterday

Maximum temperature yesterday: 76 °F (at 4:00 PM)
Minimum temperature yesterday: 58 °F (at 6:00 AM)
Average temperature yesterday: 67 °F

High & Low Weather Summary for the Past Weeks

 TemperatureHumidityPressure
High77 °F (May 22, 2:00 PM)98% (May 12, 1:00 PM)30.13 "Hg (May 12, 1:00 PM)
Low42 °F (May 16, 3:00 AM)31% (May 18, 3:00 PM)29.32 "Hg (May 13, 5:00 AM)
Average57 °F67%29.86 "Hg
* Reported May 9 2:00 PM — May 24 2:00 PM, Gmünd, Weather by CustomWeather, © 2016

Note: Actual official high and low records may vary slightly from our data, if they occured in-between our weather recording intervals... More about our weather records

Advertising

Gmünd Weather History for the Previous 24 Hours

Scroll right to see more
 ConditionsComfort  
Time TempWeatherWind HumidityBarometerVisibility
2:00 PM
Tue, May 24
58 °FOvercast.8 mph84%29.75 "Hg17 mi
1:00 PM57 °FCool.8 mph88%29.75 "HgN/A
12:00 PM54 °FCool.3 mph91%29.79 "HgN/A
11:00 AM53 °FCool.6 mph92%29.78 "HgN/A
10:00 AM51 °FFog.6 mph96%29.80 "HgN/A
9:00 AM51 °FCool.9 mph89%29.75 "HgN/A
8:00 AM50 °FSprinkles. Overcast.5 mph89%29.77 "Hg11 mi
7:00 AM51 °FOvercast.2 mph88%29.78 "Hg12 mi
6:00 AM51 °FCool.6 mph86%29.76 "HgN/A
5:00 AM51 °FCool.7 mph86%29.75 "HgN/A
4:00 AM51 °FCool.8 mph88%29.78 "HgN/A
3:00 AM51 °FCool.12 mph87%29.75 "HgN/A
2:00 AM51 °FCool.7 mph87%29.80 "HgN/A
12:00 AM55 °FCool.8 mph81%29.77 "HgN/A
11:00 PM
Mon, May 23
59 °FCool.7 mph80%29.75 "HgN/A
10:00 PM62 °FCool.10 mph73%29.71 "HgN/A
9:00 PM64 °FMild.6 mph71%29.71 "HgN/A
8:00 PM67 °FScattered clouds.7 mph71%29.67 "Hg12 mi
7:00 PM74 °FMild.3 mph45%29.64 "HgN/A
6:00 PM76 °FMild.6 mph42%29.64 "HgN/A
5:00 PM76 °FMild.6 mph43%29.66 "HgN/A
4:00 PM76 °FMild.6 mph46%29.67 "HgN/A
3:00 PM76 °FMild.6 mph42%29.70 "HgN/A
Weather by CustomWeather, © 2016

See weather overviewHow to use our weather pages